QPF
0.00 0.00 0.00 0.00 0.00 0.00 0.00 0.00 0.00 0.00 0.00 0.00 0.00 0.00 0.00 0.00 0.00 0.00 0.00 0.00 0.00 0.00 0.00 0.00 0.00 0.00 0.00 0.00 0.00 0.00 0.00 0.00 0.00 0.00 0.00 0.00 0.00 0.00 0.00 0.00 0.00 0.00 0.00 0.00
0.00 0.00 0.00 0.00 0.00 0.00 0.00 0.00 0.00 0.00 0.00 0.00 0.00 0.00 0.00 0.00 0.00 0.00 0.00 0.00 0.00 0.00 0.00 0.00 0.00 0.00 0.00 0.00 0.00 0.00 0.00 0.00 0.00 0.00 0.00 0.00 0.00 0.00 0.00 0.00 0.00 0.00 0.00 0.00
0.00 0.00 0.00 0.00 0.00 0.00 0.00 0.00 0.00 0.00 0.00 0.00 0.00 0.00 0.00 0.00 0.00 0.00 0.00 0.00 0.00 0.00 0.00 0.00 0.00 0.00 0.00 0.00 0.00 0.00 0.00 0.00 0.00 0.00 0.00 0.00 0.00 0.00 0.00 0.00 0.00 0.00 0.00 0.00
0.00 0.00 0.00 0.00 0.00 0.00 0.00 0.00 0.00 0.00 0.00 0.00 0.00 0.00 0.00 0.00 0.00 0.00 0.00 0.00 0.00 0.00 0.00 0.00 0.00 0.00 0.00 0.00 0.00 0.00 0.00 0.00 0.00 0.00 0.00 0.00 0.00 0.00 0.00 0.00 0.00 0.00 0.00 0.00
0.00 0.00 0.00 0.00 0.00 0.00 0.00 0.00 0.00 0.00 0.00 0.00 0.00 0.00 0.00 0.00 0.00 0.00 0.00 0.00 0.00 0.00 0.00 0.00 0.00 0.00 0.00 0.00 0.00 0.00 0.00 0.00 0.00 0.00 0.00 0.00 0.00 0.00 0.00 0.00 0.00 0.00 0.00 0.00
0.00 0.00 0.00 0.00 0.00 0.00 0.00 0.00 0.00 0.00 0.00 0.00 0.00 0.00 0.00 0.00 0.00 0.00 0.00 0.00 0.00 0.00 0.00 0.00 0.00 0.00 0.00 0.00 0.00 0.00 0.00 0.00 0.00 0.00 0.00 0.00 0.00 0.00 0.00 0.00 0.00 0.00 0.00 0.00
0.00 0.00 0.00 0.00 0.00 0.00 0.00 0.00 0.00 0.00 0.00 0.00 0.00 0.00 0.00 0.00 0.00 0.00 0.00 0.00 0.00 0.00 0.00 0.00 0.00 0.00 0.00 0.00 0.00 0.00 0.00 0.00 0.00 0.00 0.00 0.00 0.00 0.00 0.00 0.00 0.00 0.00 0.00 0.00
0.00 0.00 0.00 0.00 0.00 0.00 0.00 0.00 0.00 0.00 0.00 0.00 0.00 0.00 0.00 0.00 0.00 0.00 0.00 0.00 0.00 0.00 0.00 0.00 0.00 0.00 0.00 0.00 0.00 0.00 0.00 0.00 0.00 0.00 0.00 0.00 0.00 0.00 0.00 0.00 0.00 0.00 0.00 0.00
0.00 0.00 0.00 0.00 0.00 0.00 0.00 0.00 0.00 0.00 0.00 0.00 0.00 0.00 0.00 0.00 0.00 0.00 0.00 0.00 0.00 0.00 0.00 0.00 0.00 0.00 0.00 0.00 0.00 0.00 0.00 0.00 0.00 0.00 0.00 0.00 0.00 0.00 0.00 0.00 0.00 0.00 0.00 0.00
0.00 0.00 0.00 0.00 0.00 0.00 0.00 0.00 0.00 0.00 0.00 0.00 0.00 0.00 0.00 0.00 0.00 0.00 0.00 0.00 0.00 0.00 0.00 0.00 0.00 0.00 0.00 0.00 0.00 0.00 0.00 0.00 0.00 0.00 0.00 0.00 0.00 0.00 0.00 0.00 0.00 0.00 0.00 0.00
0.00 0.00 0.00 0.00 0.00 0.00 0.00 0.00 0.00 0.00 0.00 0.00 0.00 0.00 0.00 0.00 0.00 0.00 0.00 0.00 0.00 0.00 0.00 0.00 0.00 0.00 0.00 0.00 0.00 0.00 0.00 0.00 0.00 0.00 0.00 0.00 0.00 0.00 0.00 0.00 0.00 0.00 0.00 0.00
0.00 0.00 0.01 0.00 0.00 0.00 0.00 0.00 0.00 0.00 0.00 0.00 0.00 0.00 0.00 0.00 0.00 0.00 0.00 0.00 0.00 0.00 0.00 0.00 0.00 0.00 0.00 0.00 0.00 0.00 0.00 0.00 0.00 0.00 0.00 0.00 0.00 0.00 0.00 0.00 0.00 0.00 0.00 0.00
0.00 0.00 0.00 0.00 0.00 0.00 0.00 0.00 0.00 0.00 0.00 0.00 0.00 0.00 0.00 0.00 0.00 0.00 0.00 0.00 0.00 0.00 0.00 0.00 0.00 0.00 0.00 0.00 0.00 0.00 0.00 0.00 0.00 0.00 0.00 0.00 0.00 0.00 0.00 0.00 0.00 0.00 0.00 0.00
0.00 0.00 0.00 0.00 0.00 0.00 0.00 0.00 0.00 0.00 0.00 0.00 0.00 0.00 0.01 0.01 0.01 0.01 0.00 0.00 0.00 0.00 0.00 0.00 0.00 0.00 0.00 0.00 0.00 0.00 0.00 0.00 0.00 0.00 0.00 0.00 0.00 0.00 0.00 0.00 0.00 0.00 0.00 0.00
0.00 0.00 0.00 0.00 0.00 0.00 0.00 0.00 0.00 0.00 0.00 0.00 0.00 0.00 0.00 0.00 0.01 0.01 0.01 0.01 0.00 0.00 0.00 0.00 0.00 0.00 0.00 0.00 0.00 0.00 0.00 0.00 0.00 0.00 0.00 0.00 0.00 0.00 0.00 0.00 0.00 0.00 0.00 0.00
0.00 0.00 0.00 0.00 0.00 0.00 0.00 0.00 0.00 0.00 0.00 0.00 0.00 0.00 0.00 0.00 0.01 0.01 0.01 0.01 0.01 0.00 0.00 0.00 0.00 0.00 0.00 0.00 0.00 0.00 0.00 0.00 0.00 0.00 0.00 0.00 0.00 0.00 0.00 0.00 0.00 0.00 0.00 0.00
0.00 0.00 0.00 0.00 0.00 0.00 0.00 0.00 0.00 0.00 0.00 0.00 0.00 0.00 0.00 0.00 0.00 0.01 0.01 0.01 0.01 0.01 0.00 0.00 0.00 0.00 0.00 0.00 0.00 0.00 0.00 0.00 0.00 0.00 0.00 0.00 0.01 0.01 0.01 0.01 0.00 0.01 0.01 0.01
0.00 0.00 0.00 0.00 0.00 0.00 0.00 0.00 0.00 0.00 0.00 0.00 0.00 0.00 0.00 0.00 0.00 0.00 0.00 0.00 0.00 0.01 0.01 0.01 0.01 0.00 0.00 0.00 0.00 0.00 0.00 0.00 0.00 0.01 0.01 0.01 0.01 0.01 0.01 0.01 0.01 0.01 0.01 0.01
0.00 0.00 0.00 0.00 0.00 0.00 0.00 0.00 0.00 0.00 0.00 0.00 0.00 0.00 0.00 0.00 0.00 0.00 0.00 0.00 0.00 0.00 0.01 0.01 0.01 0.01 0.00 0.00 0.01 0.01 0.01 0.01 0.01 0.01 0.01 0.01 0.01 0.01 0.01 0.01 0.01 0.01 0.01 0.01
0.00 0.00 0.00 0.00 0.00 0.00 0.00 0.00 0.00 0.00 0.00 0.00 0.00 0.00 0.00 0.00 0.00 0.00 0.00 0.00 0.00 0.00 0.00 0.01 0.01 0.01 0.00 0.00 0.01 0.01 0.01 0.01 0.01 0.01 0.01 0.01 0.01 0.01 0.01 0.01 0.01 0.01 0.01 0.02
0.00 0.00 0.00 0.00 0.00 0.00 0.00 0.00 0.00 0.00 0.00 0.00 0.00 0.00 0.00 0.00 0.00 0.00 0.00 0.00 0.00 0.00 0.00 0.01 0.01 0.01 0.01 0.01 0.01 0.01 0.01 0.01 0.01 0.01 0.01 0.01 0.01 0.01 0.01 0.01 0.02 0.02 0.02 0.02
0.00 0.00 0.00 0.00 0.00 0.00 0.00 0.00 0.00 0.00 0.00 0.00 0.00 0.00 0.00 0.00 0.00 0.00 0.00 0.00 0.00 0.01 0.01 0.01 0.01 0.01 0.02 0.02 0.02 0.01 0.01 0.01 0.01 0.01 0.01 0.01 0.01 0.01 0.02 0.02 0.02 0.03 0.03 0.04
0.00 0.00 0.00 0.00 0.00 0.00 0.00 0.00 0.00 0.00 0.00 0.00 0.00 0.00 0.00 0.01 0.01 0.01 0.01 0.00 0.00 0.01 0.01 0.01 0.01 0.02 0.03 0.03 0.02 0.02 0.01 0.01 0.01 0.01 0.02 0.02 0.02 0.02 0.02 0.03 0.03 0.03 0.04 0.04
0.00 0.00 0.00 0.00 0.00 0.00 0.00 0.00 0.00 0.00 0.00 0.00 0.00 0.01 0.01 0.01 0.01 0.01 0.01 0.01 0.01 0.00 0.00 0.00 0.01 0.02 0.02 0.01 0.01 0.01 0.01 0.01 0.02 0.02 0.02 0.03 0.04 0.05 0.05 0.05 0.05 0.04 0.05 0.05
0.00 0.00 0.00 0.00 0.00 0.00 0.00 0.00 0.00 0.00 0.00 0.00 0.00 0.00 0.01 0.01 0.01 0.00 0.01 0.01 0.01 0.01 0.00 0.00 0.01 0.02 0.01 0.01 0.01 0.01 0.02 0.02 0.02 0.02 0.03 0.03 0.04 0.06 0.06 0.06 0.06 0.06 0.06 0.07
0.00 0.00 0.00 0.00 0.00 0.00 0.00 0.00 0.00 0.00 0.01 0.01 0.00 0.00 0.00 0.00 0.01 0.01 0.01 0.01 0.01 0.01 0.01 0.00 0.00 0.00 0.00 0.00 0.00 0.01 0.01 0.01 0.02 0.03 0.03 0.04 0.04 0.05 0.06 0.07 0.07 0.07 0.07 0.07
0.00 0.00 0.01 0.01 0.00 0.00 0.01 0.01 0.01 0.01 0.01 0.01 0.01 0.01 0.01 0.01 0.01 0.01 0.01 0.01 0.01 0.01 0.01 0.01 0.00 0.00 0.00 0.00 0.00 0.00 0.01 0.01 0.01 0.01 0.02 0.03 0.04 0.04 0.05 0.06 0.07 0.07 0.07 0.06
MSLP
1015.40 1015.58 1015.85 1016.18 1016.53 1016.82 1016.99 1016.97 1016.74 1016.29 1015.66 1014.90 1014.08 1013.29 1012.59 1012.03 1011.62 1011.37 1011.23 1011.17 1011.15 1011.13 1011.09 1011.04 1010.99 1010.96 1010.98 1011.08 1011.26 1011.52 1011.84 1012.19 1012.53 1012.84 1013.10 1013.30 1013.44 1013.53 1013.59 1013.64 1013.69 1013.76 1013.84 1013.93
1015.97 1016.07 1016.21 1016.37 1016.52 1016.60 1016.59 1016.43 1016.13 1015.67 1015.10 1014.46 1013.80 1013.17 1012.63 1012.20 1011.88 1011.66 1011.52 1011.41 1011.32 1011.21 1011.09 1010.95 1010.82 1010.72 1010.68 1010.73 1010.86 1011.08 1011.36 1011.67 1012.00 1012.30 1012.56 1012.78 1012.94 1013.07 1013.17 1013.26 1013.35 1013.44 1013.54 1013.64
1016.65 1016.68 1016.70 1016.71 1016.68 1016.60 1016.43 1016.16 1015.79 1015.34 1014.83 1014.29 1013.77 1013.30 1012.90 1012.58 1012.34 1012.15 1012.00 1011.85 1011.69 1011.49 1011.27 1011.04 1010.81 1010.62 1010.50 1010.46 1010.51 1010.65 1010.86 1011.11 1011.39 1011.67 1011.93 1012.16 1012.36 1012.53 1012.67 1012.81 1012.93 1013.05 1013.17 1013.28
1017.38 1017.35 1017.28 1017.17 1017.01 1016.79 1016.50 1016.14 1015.74 1015.30 1014.84 1014.40 1014.00 1013.65 1013.37 1013.15 1012.97 1012.81 1012.66 1012.47 1012.24 1011.96 1011.65 1011.31 1010.98 1010.68 1010.45 1010.30 1010.24 1010.27 1010.38 1010.55 1010.76 1010.99 1011.23 1011.46 1011.68 1011.88 1012.08 1012.25 1012.42 1012.57 1012.70 1012.82
1018.08 1018.00 1017.87 1017.67 1017.41 1017.09 1016.73 1016.33 1015.90 1015.48 1015.08 1014.72 1014.42 1014.17 1013.98 1013.83 1013.70 1013.57 1013.40 1013.18 1012.90 1012.56 1012.16 1011.74 1011.31 1010.90 1010.56 1010.28 1010.09 1009.99 1009.98 1010.03 1010.15 1010.31 1010.50 1010.71 1010.93 1011.15 1011.38 1011.59 1011.79 1011.96 1012.11 1012.23
1018.66 1018.54 1018.36 1018.10 1017.79 1017.42 1017.02 1016.60 1016.19 1015.80 1015.46 1015.16 1014.94 1014.76 1014.64 1014.54 1014.44 1014.32 1014.15 1013.91 1013.59 1013.20 1012.75 1012.26 1011.75 1011.26 1010.80 1010.41 1010.09 1009.85 1009.70 1009.62 1009.61 1009.67 1009.78 1009.94 1010.13 1010.34 1010.57 1010.80 1011.01 1011.21 1011.37 1011.49
1019.07 1018.91 1018.69 1018.41 1018.07 1017.69 1017.29 1016.89 1016.51 1016.17 1015.87 1015.63 1015.46 1015.34 1015.25 1015.18 1015.09 1014.97 1014.80 1014.55 1014.22 1013.80 1013.33 1012.80 1012.25 1011.70 1011.16 1010.66 1010.22 1009.85 1009.55 1009.33 1009.19 1009.12 1009.12 1009.19 1009.31 1009.48 1009.67 1009.89 1010.10 1010.30 1010.46 1010.60
1019.28 1019.09 1018.85 1018.55 1018.22 1017.87 1017.50 1017.14 1016.81 1016.51 1016.26 1016.07 1015.93 1015.83 1015.75 1015.68 1015.59 1015.46 1015.28 1015.03 1014.70 1014.29 1013.82 1013.30 1012.73 1012.15 1011.57 1011.00 1010.47 1009.98 1009.54 1009.18 1008.88 1008.67 1008.53 1008.48 1008.49 1008.57 1008.70 1008.87 1009.05 1009.23 1009.40 1009.55
1019.34 1019.12 1018.87 1018.59 1018.28 1017.97 1017.65 1017.35 1017.07 1016.82 1016.62 1016.44 1016.31 1016.20 1016.11 1016.02 1015.90 1015.75 1015.56 1015.30 1014.99 1014.61 1014.16 1013.67 1013.13 1012.56 1011.96 1011.36 1010.77 1010.19 1009.64 1009.14 1008.70 1008.33 1008.03 1007.83 1007.71 1007.66 1007.69 1007.78 1007.91 1008.06 1008.22 1008.38
1019.33 1019.10 1018.84 1018.58 1018.31 1018.05 1017.79 1017.55 1017.32 1017.12 1016.93 1016.77 1016.62 1016.48 1016.34 1016.20 1016.04 1015.85 1015.63 1015.37 1015.06 1014.71 1014.31 1013.86 1013.37 1012.84 1012.27 1011.67 1011.05 1010.41 1009.78 1009.17 1008.60 1008.07 1007.62 1007.25 1006.97 1006.78 1006.68 1006.66 1006.71 1006.81 1006.95 1007.13
1019.35 1019.10 1018.86 1018.62 1018.40 1018.18 1017.98 1017.79 1017.61 1017.43 1017.25 1017.06 1016.88 1016.68 1016.48 1016.26 1016.03 1015.78 1015.52 1015.23 1014.93 1014.60 1014.24 1013.85 1013.42 1012.94 1012.42 1011.85 1011.23 1010.58 1009.90 1009.22 1008.54 1007.89 1007.29 1006.76 1006.32 1005.97 1005.73 1005.58 1005.53 1005.56 1005.67 1005.84
1019.47 1019.23 1019.00 1018.79 1018.60 1018.43 1018.28 1018.12 1017.96 1017.78 1017.59 1017.37 1017.12 1016.85 1016.56 1016.25 1015.93 1015.60 1015.28 1014.95 1014.62 1014.30 1013.96 1013.61 1013.24 1012.82 1012.36 1011.84 1011.26 1010.63 1009.94 1009.22 1008.47 1007.73 1007.02 1006.36 1005.77 1005.27 1004.88 1004.60 1004.44 1004.38 1004.44 1004.59
1019.73 1019.50 1019.29 1019.10 1018.95 1018.81 1018.67 1018.53 1018.38 1018.19 1017.96 1017.69 1017.38 1017.02 1016.64 1016.22 1015.80 1015.38 1014.97 1014.58 1014.21 1013.86 1013.53 1013.20 1012.86 1012.50 1012.09 1011.63 1011.11 1010.52 1009.86 1009.14 1008.38 1007.59 1006.80 1006.04 1005.34 1004.71 1004.18 1003.77 1003.48 1003.33 1003.31 1003.41
1020.10 1019.89 1019.70 1019.54 1019.40 1019.27 1019.14 1019.00 1018.83 1018.62 1018.35 1018.03 1017.64 1017.20 1016.72 1016.21 1015.68 1015.16 1014.66 1014.19 1013.75 1013.36 1012.99 1012.66 1012.33 1012.00 1011.64 1011.24 1010.78 1010.25 1009.64 1008.97 1008.23 1007.45 1006.63 1005.82 1005.03 1004.30 1003.65 1003.11 1002.70 1002.43 1002.32 1002.35
1020.52 1020.33 1020.16 1020.01 1019.88 1019.75 1019.62 1019.46 1019.27 1019.02 1018.71 1018.34 1017.89 1017.38 1016.82 1016.22 1015.60 1014.99 1014.39 1013.83 1013.32 1012.85 1012.43 1012.06 1011.71 1011.38 1011.05 1010.70 1010.30 1009.84 1009.32 1008.71 1008.04 1007.29 1006.50 1005.67 1004.84 1004.04 1003.30 1002.65 1002.11 1001.72 1001.49 1001.41
1020.90 1020.74 1020.59 1020.45 1020.31 1020.17 1020.02 1019.84 1019.62 1019.34 1019.00 1018.58 1018.09 1017.53 1016.91 1016.25 1015.57 1014.88 1014.20 1013.55 1012.95 1012.40 1011.91 1011.47 1011.09 1010.74 1010.41 1010.08 1009.74 1009.35 1008.91 1008.40 1007.81 1007.14 1006.39 1005.59 1004.75 1003.91 1003.10 1002.35 1001.70 1001.18 1000.82 1000.62
1021.18 1021.04 1020.90 1020.76 1020.61 1020.46 1020.28 1020.08 1019.83 1019.53 1019.16 1018.73 1018.22 1017.63 1016.99 1016.30 1015.57 1014.83 1014.09 1013.37 1012.69 1012.05 1011.48 1010.97 1010.52 1010.13 1009.78 1009.47 1009.16 1008.83 1008.47 1008.05 1007.55 1006.97 1006.30 1005.54 1004.73 1003.88 1003.02 1002.20 1001.44 1000.80 1000.30 999.98
1021.30 1021.19 1021.06 1020.91 1020.75 1020.58 1020.38 1020.15 1019.88 1019.57 1019.19 1018.75 1018.24 1017.66 1017.02 1016.33 1015.59 1014.82 1014.04 1013.27 1012.52 1011.81 1011.16 1010.57 1010.05 1009.60 1009.22 1008.89 1008.60 1008.32 1008.02 1007.68 1007.27 1006.78 1006.19 1005.50 1004.73 1003.88 1003.00 1002.13 1001.29 1000.55 999.93 999.48
1021.27 1021.17 1021.04 1020.89 1020.71 1020.51 1020.30 1020.05 1019.76 1019.43 1019.06 1018.63 1018.14 1017.59 1016.97 1016.30 1015.58 1014.81 1014.02 1013.22 1012.42 1011.65 1010.93 1010.27 1009.68 1009.18 1008.75 1008.39 1008.10 1007.84 1007.58 1007.30 1006.97 1006.56 1006.05 1005.43 1004.70 1003.88 1003.01 1002.10 1001.22 1000.40 999.70 999.15
1021.12 1021.02 1020.89 1020.72 1020.53 1020.31 1020.06 1019.79 1019.49 1019.16 1018.79 1018.38 1017.91 1017.39 1016.81 1016.17 1015.48 1014.74 1013.95 1013.14 1012.33 1011.52 1010.75 1010.03 1009.38 1008.82 1008.34 1007.95 1007.64 1007.38 1007.14 1006.90 1006.62 1006.28 1005.83 1005.28 1004.61 1003.84 1002.99 1002.09 1001.20 1000.35 999.60 998.99
1020.89 1020.78 1020.63 1020.45 1020.23 1019.99 1019.72 1019.42 1019.10 1018.76 1018.39 1017.98 1017.54 1017.05 1016.51 1015.91 1015.25 1014.54 1013.78 1012.99 1012.17 1011.35 1010.55 1009.79 1009.10 1008.49 1007.96 1007.54 1007.19 1006.92 1006.68 1006.46 1006.22 1005.91 1005.53 1005.03 1004.43 1003.72 1002.93 1002.08 1001.22 1000.39 999.65 999.04
1020.59 1020.47 1020.31 1020.10 1019.86 1019.58 1019.28 1018.95 1018.61 1018.25 1017.87 1017.47 1017.03 1016.56 1016.05 1015.48 1014.86 1014.19 1013.46 1012.69 1011.89 1011.07 1010.26 1009.49 1008.77 1008.12 1007.56 1007.10 1006.72 1006.42 1006.18 1005.96 1005.73 1005.46 1005.12 1004.69 1004.17 1003.54 1002.83 1002.06 1001.28 1000.53 999.85 999.29
1020.23 1020.10 1019.91 1019.67 1019.40 1019.09 1018.75 1018.40 1018.02 1017.64 1017.24 1016.82 1016.39 1015.93 1015.43 1014.89 1014.30 1013.66 1012.97 1012.22 1011.45 1010.65 1009.85 1009.08 1008.35 1007.69 1007.10 1006.61 1006.20 1005.88 1005.61 1005.38 1005.16 1004.92 1004.63 1004.27 1003.82 1003.30 1002.70 1002.05 1001.39 1000.75 1000.18 999.72
1019.79 1019.63 1019.41 1019.15 1018.84 1018.50 1018.13 1017.74 1017.34 1016.93 1016.50 1016.07 1015.63 1015.16 1014.67 1014.15 1013.58 1012.97 1012.31 1011.60 1010.86 1010.09 1009.32 1008.56 1007.84 1007.17 1006.57 1006.06 1005.63 1005.28 1004.99 1004.75 1004.54 1004.32 1004.07 1003.78 1003.43 1003.01 1002.55 1002.04 1001.53 1001.05 1000.62 1000.29
1019.22 1019.03 1018.79 1018.50 1018.16 1017.80 1017.40 1016.99 1016.56 1016.13 1015.68 1015.23 1014.78 1014.31 1013.82 1013.30 1012.75 1012.17 1011.54 1010.87 1010.16 1009.43 1008.69 1007.96 1007.26 1006.60 1006.00 1005.47 1005.02 1004.65 1004.35 1004.10 1003.89 1003.69 1003.49 1003.26 1003.01 1002.71 1002.39 1002.04 1001.70 1001.38 1001.11 1000.92
1018.48 1018.26 1018.00 1017.69 1017.34 1016.96 1016.55 1016.13 1015.69 1015.25 1014.80 1014.34 1013.88 1013.41 1012.93 1012.42 1011.89 1011.33 1010.73 1010.09 1009.42 1008.74 1008.03 1007.34 1006.66 1006.01 1005.42 1004.89 1004.42 1004.03 1003.71 1003.46 1003.24 1003.06 1002.90 1002.75 1002.58 1002.40 1002.22 1002.02 1001.84 1001.68 1001.58 1001.53
1017.56 1017.31 1017.03 1016.71 1016.36 1015.99 1015.59 1015.18 1014.76 1014.32 1013.89 1013.44 1012.99 1012.53 1012.06 1011.57 1011.06 1010.52 1009.95 1009.35 1008.72 1008.07 1007.41 1006.74 1006.09 1005.46 1004.88 1004.34 1003.87 1003.47 1003.13 1002.86 1002.65 1002.48 1002.35 1002.25 1002.17 1002.09 1002.02 1001.96 1001.92 1001.91 1001.94 1002.02
Thickness
5692 5696 5696 5696 5697 5696 5691 5686 5679 5689 5693 5701 5707 5710 5713 5716 5717 5718 5718 5717 5717 5716 5715 5714 5713 5712 5711 5709 5708 5705 5702 5700 5698 5696 5693 5690 5686 5683 5680 5677 5675 5672 5669 5667
5690 5695 5694 5694 5698 5697 5694 5692 5689 5691 5693 5705 5707 5708 5709 5710 5711 5711 5712 5713 5714 5714 5713 5712 5711 5710 5709 5708 5706 5704 5701 5699 5697 5694 5691 5688 5685 5682 5679 5676 5673 5671 5668 5666
5675 5683 5691 5683 5693 5695 5693 5693 5691 5686 5693 5701 5702 5704 5704 5705 5706 5706 5707 5709 5709 5710 5711 5711 5710 5710 5708 5706 5704 5701 5699 5697 5695 5693 5690 5687 5685 5680 5677 5674 5671 5669 5666 5664
5666 5676 5670 5684 5698 5698 5692 5690 5690 5692 5694 5696 5698 5701 5703 5703 5702 5703 5704 5705 5706 5707 5708 5709 5708 5707 5706 5704 5701 5698 5696 5695 5693 5691 5688 5685 5682 5679 5676 5673 5670 5667 5665 5663
5656 5660 5667 5683 5694 5692 5688 5684 5689 5688 5690 5692 5696 5697 5696 5700 5699 5700 5701 5702 5703 5704 5705 5705 5705 5704 5701 5699 5697 5695 5694 5693 5692 5689 5687 5684 5680 5678 5675 5671 5668 5666 5663 5661
5652 5658 5658 5677 5692 5695 5690 5675 5685 5685 5684 5685 5686 5676 5682 5694 5695 5696 5697 5697 5698 5699 5699 5699 5699 5698 5696 5693 5692 5692 5692 5691 5689 5687 5685 5683 5681 5677 5674 5671 5668 5665 5662 5659
5647 5650 5659 5677 5685 5688 5667 5666 5679 5680 5679 5678 5675 5675 5681 5686 5688 5689 5690 5691 5692 5692 5692 5692 5692 5691 5690 5688 5689 5690 5689 5688 5686 5684 5683 5682 5678 5675 5672 5668 5665 5662 5660 5657
5640 5642 5652 5675 5675 5667 5665 5673 5675 5674 5674 5673 5674 5676 5678 5679 5680 5681 5682 5683 5684 5683 5683 5684 5684 5684 5683 5683 5685 5684 5684 5683 5682 5680 5680 5678 5674 5671 5669 5666 5662 5659 5656 5654
5647 5652 5663 5667 5667 5668 5668 5666 5668 5667 5668 5668 5668 5667 5669 5669 5670 5672 5673 5674 5674 5674 5674 5675 5676 5677 5677 5678 5678 5678 5677 5676 5675 5675 5674 5673 5670 5668 5664 5662 5659 5656 5653 5651
5644 5652 5658 5660 5661 5662 5661 5660 5661 5661 5660 5659 5658 5659 5659 5659 5660 5661 5663 5664 5664 5664 5665 5666 5667 5669 5670 5671 5671 5670 5669 5668 5668 5667 5667 5666 5665 5664 5661 5659 5656 5654 5651 5649
5636 5643 5648 5651 5652 5652 5653 5652 5652 5652 5651 5650 5650 5649 5649 5649 5650 5651 5653 5653 5654 5654 5655 5656 5658 5659 5661 5662 5662 5661 5660 5660 5659 5659 5659 5658 5658 5658 5657 5657 5656 5654 5651 5649
5630 5637 5634 5638 5644 5644 5643 5643 5642 5642 5642 5642 5641 5640 5640 5640 5641 5641 5642 5643 5643 5644 5645 5647 5648 5649 5651 5653 5653 5652 5652 5651 5651 5651 5650 5650 5649 5649 5650 5650 5651 5651 5650 5647
5632 5635 5632 5634 5635 5635 5634 5634 5634 5633 5633 5632 5632 5631 5631 5631 5631 5631 5632 5632 5633 5634 5636 5637 5638 5640 5641 5643 5643 5644 5644 5643 5643 5643 5642 5641 5641 5641 5641 5642 5643 5643 5644 5643
5624 5623 5622 5624 5624 5625 5624 5625 5624 5624 5624 5623 5623 5622 5621 5621 5621 5621 5622 5623 5624 5625 5626 5627 5629 5630 5632 5632 5633 5634 5634 5635 5635 5634 5634 5634 5634 5634 5634 5634 5633 5633 5635 5635
5614 5613 5612 5614 5614 5614 5614 5613 5612 5612 5612 5612 5613 5612 5611 5610 5610 5611 5612 5613 5613 5614 5616 5617 5618 5621 5622 5622 5623 5623 5624 5624 5625 5625 5625 5625 5626 5626 5626 5626 5626 5626 5625 5626
5601 5601 5601 5600 5600 5601 5600 5599 5599 5600 5601 5601 5601 5601 5600 5600 5600 5600 5601 5601 5600 5602 5604 5606 5608 5610 5611 5611 5612 5613 5613 5616 5616 5615 5615 5615 5616 5616 5617 5617 5617 5618 5618 5618
5586 5586 5586 5586 5587 5587 5586 5587 5587 5589 5589 5590 5590 5590 5589 5588 5588 5588 5589 5589 5590 5591 5593 5595 5597 5600 5600 5601 5601 5602 5603 5604 5606 5605 5605 5606 5607 5608 5609 5609 5610 5611 5612 5612
5578 5578 5576 5575 5574 5574 5575 5576 5576 5577 5577 5579 5579 5578 5577 5576 5575 5576 5577 5577 5578 5579 5582 5584 5586 5588 5589 5590 5591 5592 5592 5593 5594 5595 5596 5596 5598 5599 5600 5601 5602 5602 5602 5602
5566 5566 5565 5564 5563 5562 5562 5563 5564 5564 5565 5565 5565 5565 5565 5565 5564 5564 5564 5563 5564 5566 5571 5573 5576 5577 5578 5580 5582 5582 5583 5584 5585 5586 5586 5588 5589 5590 5591 5592 5593 5593 5593 5593
5553 5553 5552 5552 5552 5550 5550 5551 5551 5551 5552 5552 5552 5552 5553 5553 5553 5552 5552 5552 5554 5557 5560 5562 5564 5566 5569 5571 5573 5573 5574 5575 5576 5577 5577 5579 5580 5582 5583 5584 5584 5584 5584 5585
5537 5537 5537 5537 5538 5538 5538 5538 5538 5539 5540 5539 5539 5540 5541 5542 5541 5540 5540 5542 5548 5548 5550 5553 5555 5557 5559 5562 5564 5564 5565 5566 5567 5568 5569 5570 5572 5574 5575 5576 5576 5576 5576 5576
5522 5522 5522 5523 5523 5524 5525 5524 5525 5526 5527 5527 5528 5528 5528 5529 5530 5530 5531 5533 5538 5540 5541 5542 5545 5549 5552 5554 5554 5555 5556 5558 5559 5560 5561 5562 5564 5566 5567 5567 5567 5567 5568 5568
5507 5508 5509 5509 5509 5510 5512 5512 5513 5514 5515 5515 5516 5516 5517 5518 5518 5518 5522 5527 5528 5531 5533 5535 5538 5542 5545 5545 5546 5547 5548 5549 5551 5552 5553 5553 5555 5557 5559 5559 5560 5559 5559 5558
5497 5497 5497 5498 5497 5498 5499 5501 5501 5502 5503 5504 5505 5506 5505 5506 5509 5512 5514 5518 5520 5523 5524 5527 5531 5534 5536 5536 5537 5538 5539 5540 5542 5542 5543 5544 5546 5548 5549 5550 5550 5550 5550 5550
5485 5486 5486 5486 5486 5487 5489 5490 5490 5491 5491 5493 5495 5496 5496 5496 5498 5502 5504 5506 5510 5513 5515 5518 5522 5525 5525 5526 5527 5529 5530 5531 5532 5533 5534 5535 5537 5538 5539 5540 5540 5540 5540 5540
5475 5475 5476 5477 5477 5477 5478 5477 5477 5479 5480 5482 5485 5487 5488 5489 5489 5491 5493 5496 5499 5502 5504 5507 5509 5512 5514 5516 5518 5519 5520 5521 5522 5523 5524 5525 5527 5528 5530 5530 5531 5531 5531 5531
5465 5466 5466 5467 5468 5467 5467 5467 5467 5469 5471 5472 5475 5478 5479 5479 5480 5482 5484 5486 5489 5491 5494 5497 5499 5502 5504 5506 5507 5509 5510 5511 5513 5514 5515 5516 5518 5519 5521 5522 5522 5522 5521 5520